Location: Tierz
(42.1336°N, 0.3549°W)
Time: 22:35:36
(UTC+00:00)

Cosmos 1745 Rocket - Pass Details

Date: 29 October 2020
Orbit: 953 x 997 km, 83.0° (Epoch: 25 November)

Event Time Altitude Azimuth Distance (km) Brightness Sun altitude
Rises 18:08:14 0° 355° (N) 3,695 7.0 -13.4°
Reaches altitude 10° 18:10:48 10° 360° (N) 2,749 6.3 -13.9°
Maximum altitude 18:17:01 59° 79° (E) 1,134 4.0 -15.1°
Drops below altitude 10° 18:23:16 10° 159° (SSE) 2,753 6.2 -16.2°
Sets 18:25:50 0° 163° (SSE) 3,701 6.9 -16.7°
